Погода в Бисере

Погода в Бисере : погода сейчас, прогноз погоды и архив. Всё, что Вы хотите узнать о погоде в Бисере!

Поиск расширенной информации на нашем сайте:

Другие новости

Новости СМИ2

Главная страница сайта

Новости сайта

03.07.2017

Напоминаем, что на нашем специализированном сайте Метеоцентр.Азия вы можете получить высокодетализированные автоматические прогнозы погоды по пунктам России, СНГ и мира в авиационном формате (включающие направление и скорость ветра, видимость, явления погоды, количество и форму облачности, нижнюю и верхнюю границу облачности).


Погода в Бисере - сегодня

Время (UTC), дата Ветер
(°,м/с) 
Видим.   Явления Облачность Т
(°С)
Тd
(°С)
f(%) Тe
(°С)
Pmin
(гПа)
dP
(гПа)
Po
(мм)
O2
(г/м3)
Тmin Tmax R s Состояние
почвы
21 09.11.18 020 (С) 20000 м  [диам. гололёда 2 мм]  ясно 
-18.2 -19.9 87 -21  1034.8  0.7  730  316           
00 10.11.18 360 (С) 20000 м  [диам. гололёда 2 мм]  ясно 
-20 -22.1 83 -23  1036.4  1.1  730  319           
03 10.11.18 020 (С) 20000 м  [диам. гололёда 2 мм]  ясно 
-20.9 -23.1 82 -21  1037.9  1.1  731  321  -21.3      13  равномерный
сухой снег
100% 
06 10.11.18 тихо ()   20000 м  [диам. гололёда 2 мм]  ясно 
-16 -17.8 86 -16  1038.3  1.6  732  315  -21.5         
09 10.11.18 320 (СЗ) 20000 м  [диам. гололёда 2 мм]  ясно 
-11.6 -13.9 83 -11  1038.9  1.5  734  310           
12 10.11.18 320 (СЗ) 20000 м  [диам. гололёда 2 мм]  3/0 верхняя 
[Ci fib]
-15.1 -16.8 87 -15  1040.9  1.1  734  315           
18 10.11.18 330 (СЗ) 20000 м  [диам. гололёда 2 мм]  ясно 
-16.2 -18.1 85 -20  1042.8  0.7  736  317           
21 10.11.18 330 (СЗ) 20000 м  [диам. гололёда 2 мм]  ясно 
-16 -18 85 -20  1043.7  0.9  736  317           
00 11.11.18 340 (С) 20000 м  [диам. гололёда 2 мм]  ясно 
-16.5 -18.6 84 -20  1045.1  1.3  737  318           
03 11.11.18 330 (СЗ) 20000 м  [диам. гололёда 2 мм]  3/0 верхняя 
[Ci fib]
-15.5 -17.4 85 -19  1046.2  1.2  738  317  -17.9      13  равномерный
сухой снег
100% 
06 11.11.18 300 (СЗ) 20000 м  [диам. гололёда 2 мм]  10/3 600 м средняя 
[Sc|Ac trans]
-13.2 -15 86 -15  1046.7  739  314           
21 11.11.18 290 (З) 5{13}  20000 м    ясно 
-11.5 -14 82 -16  1043  -0.6  737  311           
03 12.11.18 250 (З) 4{11}  20000 м    8/3 2000 м средняя, верхняя 
[Ac lent|Ci fib]
-12.8 -15.5 80 -17  1042.1  -0.8  736  312  -13      13  равномерный
сухой снег
100% 
21 12.11.18 270 (З) 5{11}  20000 м    10/10 600 м 
[Sc]
-10 -13.6 75 -15  1039.1  -0.2  734  308           
00 13.11.18 270 (З) 20000 м    10/10 600 м 
[Sc]
-11.4 -14.2 80 -16  1039.1  -0.3  734  310           
03 13.11.18 280 (З) 6-10{12}  20000 м    3/0 верхняя 
[Ci fib]
-11.4 -14.5 78 -17  1038.8  -0.3  734  310  -11.4      13  равномерный
сухой снег
100% 
12 13.11.18 240 (ЮЗ) 4{10}  20000 м    10/3 600 м верхняя 
[Sc|Ci sp]
-9.6 -13.1 76 -14  1036.2  -1.1  732  307           
18 13.11.18 240 (ЮЗ) 20000 м    8/0 верхняя 
[Ci sp]
-10.9 -14.3 76 -13  1035.2  -1  731  308           
21 13.11.18 260 (З) 20000 м    3/0 верхняя 
[Ci fib]
-10.9 -15.1 71 -16  1033.6  -1.5  730  308           
00 14.11.18 250 (З) 20000 м    ясно 
-11.1 -15.3 71 -16  1033.2  -0.4  730  308           
03 14.11.18 220 (ЮЗ) 20000 м    8/8 600 м 
[Sc]
-11.7 -15.6 73 -16  1031.5  -1.8  728  308  -12.1      13  равномерный
сухой снег
100% 
12 14.11.18 240 (ЮЗ) 5{13}  20000 м    9/9 2000 м средняя 
[Ac trans]
-5.3 -13.1 54 -9  1028.2  0.3  727  300           
00 15.11.18 250 (З) 5{11}  20000 м    6/0 верхняя 
[Ci fib]
-7.1 -12.1 67 -11  1030.9  0.5  729  303           
03 15.11.18 260 (З) 20000 м    8/0 верхняя 
[Ci fib]
-7.6 -12.2 70 -13  1032.5  1.4  730  304  -7.6      12  равномерный
сухой снег
100% 
06 15.11.18 260 (З) 20000 м    8/3 600 м верхняя 
[Sc|Ci fib]
-8.2 -11.4 78 -12  1034.5  1.7  731  305  -8.5         
Время (UTC), дата Ветер
(°,м/с) 
Видим.   Явления Облачность Т
(°С)
Тd
(°С)
f(%) Тe
(°С)
Pmin
(гПа)
dP
(гПа)
Po
(мм)
O2
(г/м3)
Тmin Tmax R s Состояние
почвы

Для получения пояснительной информации подведите курсор к названию столбца.

ПОГОДА в Бисере - архив

Всё, что Вы хотите узнать о погоде в Бисере - удобно и подробно!

Выберите нужную дату (начиная с 1 января 2015* года) и нажмите кнопку "Найти".
Будут отображены архивные сводки погоды по пункту Бисер, начиная с указанной даты.


Отображать данные в формате CSV (для использования в таблицах Excel)


Внимание! Наш архив погоды предназначен исключительно для личного некоммерческого использования в познавательных целях. Если Вам необходимы официальные справки о состоянии погоды (для производственных, юридических, коммерческих и т.п. целей), обращайтесь в органы Росгидромета.

*Примечание: данная дата относится к архиву по метеостанциям СССР (Россия, СНГ, Балтия).
Архив по метеостанциям Зарубежной Европы и Азии (кроме Китая) хранится 10 дней, по другим регионам земного шара (Китай, Африка, Америка, Австралия, Океания) - 1 день.

Бисер - район местоположения метеостанции


Название, широта, долгота, высота метеостанции:
Бисер 58.5°ш. 58.9°д. 463 м над ур. моря [Российская Федерация]

Дополнительная информация

В oтличие oт бoльшинства пoгoдных сайтoв мы публикуем пoдрoбную метеoинфoрмацию в детальнoм прoфессиoнальнoм фoрмате.

Характеристики температуры и влажнoсти вoздуха измеряются на высoте 2 м в тени вдали oт зданий и деревьев.
Скoрoсть ветра измеряется на высoте 10 м (на урoвне рoста челoвека скoрoсть ветра ниже в 1.5-2 раза). Если метеoстанция нахoдится в гoрoде или в лесу, тo скoрoсть ветра занижена на 2-4 м/с пo сравнению с oткрытым местoм. Скoрoсть ветра над акватoриями крупных рек и oзёр, а также на вершинах хoлмoв на 2-5 м/с выше, чем в oбычных услoвиях.
Атмoсфернoе давление в разных тoчках местнoсти мoжет значительнo oтличаться oт давления на метеoстанции, в зависимoсти oт услoвий рельефа (при пoдъёме на 10 м давление пoнижается примернo на 1 мм рт.ст.).